"Pseudo-MPEC" for P11JVAF

Created 2023 Sep 25 4:22:15 UT using Find_Orb

Click here for an explanation of pseudo-MPECs

 
 Astrometry: 
     P11JVAF* C2023 09 18J,gxI?sR*P3T]F-(l?F`M,S)y9#BB.UlnvE=pon(.Q(;3tZY4begF51
     P11JVAF  C2023 09 18EZ#`Astrometry#1po%lnv2l[N%fredacted;1@_UclickYt=y;=F51
     P11JVAF  C2023 09 18v?Xy*NHct=`7),-42+EhereS+_bdY%=Nu[Jfor;explanation9#F51

Station data:
(F51) Pan-STARRS 1, Haleakala  (N20.707234 W156.255910)  US/Hawaii.
   Observers J. Bulger, T. Lowe, A. Schultz, M. Willman. Measurers K.
   Chambers, S. Chastel, T. de Boer, L. Denneau, J. Fairlamb, H. Flewelling,
   M. Huber, C.-C. Lin, E. Magnier, Y. Ramanjooloo, R. Wainscoat, R. Weryk.
   1.8-m Ritchey-Chrétien + CCD.

Orbital elements:  P11JVAF
   Perihelion 2023 Sep 23.46083 +/- 25.4 TT = 11:03:35 (JD 2460210.96083)
Epoch 2023 Sep 19.0 TT = JDT 2460206.5   Earth MOID: 0.0680      AutoNEOCP
M 358.72271286 +/- 51               (J2000 ecliptic)
n   0.28633385 +/- 0.523            Peri.  194.05175 +/- 90
a   2.27975190 +/- 2.78             Node   175.63541 +/- 90
e   0.5340982 +/- 0.232             Incl.   35.13829 +/- 50
P   3.44                   H 22.30  G  0.15   U 12.3  SR
q 1.06214048 +/- 0.352    Q 3.49736331 +/- 12.8
From 3 observations 2023 Sept. 18 (18.8 min); mean residual 0".33
Residuals in arcseconds: 
230918 F51  .12-  .31+    230918 F51  .23+  .61-    230918 F51  .12-  .30+    

Ephemerides (geocentric):
Date (UTC) HH   RA             Dec           delta  r     elong  mag " sig PA
---- --------  ------------   ------------  ------ ------ -----  --- --------
2023 09 25 04  05 19 25.008   -27 39 58.94  .21746 1.0623  99.9 21.5  60d  96
2023 09 25 05  05 19 37.279   -27 45 09.57  .21779 1.0624  99.9 21.5  60d  96
2023 09 25 06  05 19 49.526   -27 50 19.17  .21813 1.0624  99.9 21.5  60d  96
2023 09 25 07  05 20 01.750   -27 55 27.73  .21847 1.0624  99.8 21.5  60d  96
2023 09 25 08  05 20 13.949   -28 00 35.27  .21880 1.0624  99.8 21.5  60d  96
2023 09 25 09  05 20 26.125   -28 05 41.78  .21914 1.0624  99.8 21.5  60d  96
2023 09 25 10  05 20 38.277   -28 10 47.28  .21948 1.0624  99.7 21.5  60d  96
2023 09 25 11  05 20 50.406   -28 15 51.75  .21982 1.0624  99.7 21.5  60d  96
2023 09 25 12  05 21 02.510   -28 20 55.21  .22016 1.0624  99.7 21.6  60d  96
2023 09 25 13  05 21 14.592   -28 25 57.66  .22050 1.0624  99.7 21.6  60d  96
2023 09 25 14  05 21 26.649   -28 30 59.10  .22084 1.0625  99.6 21.6  60d  96
2023 09 25 15  05 21 38.683   -28 35 59.54  .22118 1.0625  99.6 21.6  60d  97
2023 09 25 16  05 21 50.693   -28 40 58.98  .22152 1.0625  99.6 21.6  60d  97
2023 09 25 17  05 22 02.680   -28 45 57.41  .22186 1.0625  99.6 21.6  60d  97
2023 09 25 18  05 22 14.644   -28 50 54.86  .22220 1.0625  99.5 21.6  60d  97
2023 09 25 19  05 22 26.584   -28 55 51.31  .22255 1.0625  99.5 21.6  60d  97
2023 09 25 20  05 22 38.501   -29 00 46.77  .22289 1.0625  99.5 21.6  60d  97
2023 09 25 21  05 22 50.395   -29 05 41.24  .22323 1.0625  99.4 21.6  60d  97
2023 09 25 22  05 23 02.265   -29 10 34.74  .22358 1.0626  99.4 21.6  60d  97
2023 09 25 23  05 23 14.112   -29 15 27.25  .22392 1.0626  99.4 21.6  60d  97
2023 09 26 00  05 23 25.936   -29 20 18.79  .22427 1.0626  99.4 21.6  60d  97
2023 09 26 01  05 23 37.737   -29 25 09.36  .22462 1.0626  99.3 21.6  60d  97
2023 09 26 02  05 23 49.515   -29 29 58.96  .22496 1.0626  99.3 21.6  60d  97
2023 09 26 03  05 24 01.269   -29 34 47.59  .22531 1.0626  99.3 21.6  60d  97
2023 09 26 04  05 24 13.001   -29 39 35.26  .22566 1.0627  99.3 21.6  59d  97
2023 09 26 05  05 24 24.710   -29 44 21.98  .22600 1.0627  99.2 21.6  59d  97
2023 09 26 06  05 24 36.395   -29 49 07.73  .22635 1.0627  99.2 21.6  59d  97
2023 09 26 07  05 24 48.058   -29 53 52.53  .22670 1.0627  99.2 21.6  59d  97
2023 09 26 08  05 24 59.698   -29 58 36.39  .22705 1.0627  99.1 21.6  59d  98
2023 09 26 09  05 25 11.316   -30 03 19.29  .22740 1.0627  99.1 21.6  59d  98
2023 09 26 10  05 25 22.910   -30 08 01.26  .22775 1.0628  99.1 21.6  59d  98
2023 09 26 11  05 25 34.482   -30 12 42.28  .22810 1.0628  99.1 21.6  59d  98
2023 09 26 12  05 25 46.031   -30 17 22.37  .22845 1.0628  99.0 21.6  59d  98
2023 09 26 13  05 25 57.558   -30 22 01.52  .22880 1.0628  99.0 21.6  59d  98
2023 09 26 14  05 26 09.062   -30 26 39.75  .22916 1.0628  99.0 21.6  59d  98
2023 09 26 15  05 26 20.543   -30 31 17.04  .22951 1.0628  99.0 21.6  59d  98
2023 09 26 16  05 26 32.002   -30 35 53.42  .22986 1.0629  98.9 21.7  59d  98
2023 09 26 17  05 26 43.438   -30 40 28.87  .23022 1.0629  98.9 21.7  59d  98
2023 09 26 18  05 26 54.852   -30 45 03.41  .23057 1.0629  98.9 21.7  59d  98
2023 09 26 19  05 27 06.244   -30 49 37.03  .23092 1.0629  98.9 21.7  59d  98
2023 09 26 20  05 27 17.613   -30 54 09.74  .23128 1.0629  98.8 21.7  59d  98
2023 09 26 21  05 27 28.960   -30 58 41.54  .23163 1.0630  98.8 21.7  59d  98
2023 09 26 22  05 27 40.285   -31 03 12.44  .23199 1.0630  98.8 21.7  59d  98
2023 09 26 23  05 27 51.587   -31 07 42.44  .23235 1.0630  98.8 21.7  59d  98
2023 09 27 00  05 28 02.867   -31 12 11.54  .23270 1.0630  98.7 21.7  59d  98
2023 09 27 01  05 28 14.125   -31 16 39.75  .23306 1.0630  98.7 21.7  59d  98
2023 09 27 02  05 28 25.361   -31 21 07.06  .23342 1.0631  98.7 21.7  59d  98
2023 09 27 03  05 28 36.575   -31 25 33.49  .23377 1.0631  98.6 21.7  59d  98